Tracking 30703 objects as of 12-Jun-2025
HD Live streaming from Space Station
objects crossing your sky now

COSMOS 660

Track COSMOS 660 now!
10-day predictions
COSMOS 660 is classified as:


NORAD ID: 7337
Int'l Code: 1974-044A
Perigee: 373.0 km
Apogee: 1,014.3 km
Inclination: 82.9 °
Period: 98.5 minutes
Semi major axis: 7064 km
RCS: 2.9855 m2 (large)
Launch date: June 18, 1974
Source: Commonwealth of Independent States (former USSR) (CIS)
Launch site: PLESETSK MISSILE AND SPACE COMPLEX (PKMTR)
Your satellite tracking list
Your tracking list is empty




NASA's NSSDC Master Catalog

Two Line Element Set (TLE):
1  7337U 74044A   25163.17270775  .00007983  00000-0  33512-3 0  9996
2  7337  82.9386 228.3248 0453924 125.4726 238.9734 14.62066723587442
Source of the keplerian elements: AFSPC